Volver al catálogo

BRO-12

ActivoCienciaSSO
NORAD 59108·PAYLOAD·🇫🇷 France

Lanzado Mar 4, 2024 desde Vandenberg Space Force Base

Loading…

Próximos Pases (próximas 24 horas)

TLE

ActualizadoSource: Space-Track

Época: Sep 14, 2026, 14:15 UTC

1 59108U 24043L   26257.59388142  .00001154  00000-0  10543-3 0  9995
2 59108  97.8605  29.1459 0009746  61.2281 298.9918 14.97013411138016

Sigue BRO-12 en tiempo real con AllMySat

Download on the App Store